Temperature
12 12 12 12 12 12 11 11 11 11 11 11 11 11 11 10 10 10 10 10 10 10 10 10 10 10 10 10 10 10 10 10 10 10 10 10 10 10 10 10 10 10 10
12 12 12 12 11 11 11 11 11 11 11 10 10 10 10 10 10 10 10 10 10 10 10 10 10 10 9 9 9 9 9 9 10 10 10 10 9 9 9 9 9 9 9
12 12 11 11 11 11 11 10 10 10 10 10 10 10 10 10 10 10 9 9 9 10 10 10 10 9 9 9 9 9 9 9 9 9 9 9 9 9 9 9 9 8 9
11 11 11 11 11 11 10 10 10 10 10 10 9 9 9 9 9 9 9 9 9 9 9 9 9 9 9 9 9 9 9 9 9 9 9 9 9 9 8 8 8 8 8
11 11 11 10 10 10 10 10 10 9 9 9 9 9 9 9 9 9 9 9 9 9 9 9 9 9 9 8 8 8 8 8 8 8 8 8 8 8 8 8 8 8 8
10 10 10 10 10 10 10 9 9 9 9 9 9 9 9 9 9 9 9 9 9 9 9 9 8 8 8 8 8 8 8 8 8 8 8 7 7 7 7 7 7 7 7
10 10 10 10 10 9 9 9 9 9 9 9 8 8 8 8 8 8 8 8 8 8 8 8 8 8 8 8 8 8 8 7 7 7 7 7 7 7 7 7 7 7 7
9 9 9 9 9 9 9 9 9 8 8 8 8 7 7 7 8 8 8 8 8 8 8 8 8 8 8 7 7 7 8 7 7 7 7 7 7 6 6 6 6 6 6
9 9 9 9 9 9 9 9 8 8 8 8 8 7 7 8 7 7 7 7 7 7 7 7 7 7 7 7 7 7 7 7 7 6 6 6 6 6 6 6 6 6 6
9 9 9 9 8 8 8 8 8 8 8 7 7 7 7 7 7 7 7 7 7 7 7 7 7 7 7 7 7 7 7 7 6 6 6 6 6 6 6 6 6 6 6
8 8 8 8 8 8 8 8 8 7 7 7 7 7 7 7 7 7 6 7 7 7 7 7 7 7 7 7 7 7 7 7 6 6 5 5 5 5 5 5 5 5 5
8 8 8 8 8 8 7 7 7 7 7 7 7 7 7 7 7 7 7 6 6 6 6 6 6 6 6 6 6 6 6 6 6 6 5 5 5 5 5 5 5 5 5
7 7 7 7 7 7 7 7 7 7 7 7 7 6 6 6 6 6 6 6 6 6 6 6 6 6 6 6 6 6 6 6 6 5 5 5 5 5 5 4 4 4 4
7 7 7 7 7 7 7 6 6 6 6 6 6 6 6 6 6 6 6 6 6 6 5 6 6 6 6 6 6 6 5 5 5 5 5 5 5 4 4 4 4 4 4
6 6 6 6 6 6 6 6 6 6 6 6 6 6 6 6 6 6 6 6 6 5 5 5 5 6 6 5 5 5 5 5 5 5 5 4 4 4 4 4 4 4 4
5 5 5 5 5 6 6 5 6 6 5 6 6 5 5 5 5 5 5 5 5 5 5 5 5 5 5 5 5 5 5 5 5 4 4 4 4 4 3 3 3 3 3
5 5 5 5 5 5 5 5 5 5 5 5 5 5 5 5 5 5 5 5 5 5 5 5 5 5 5 5 5 4 4 4 4 4 4 4 4 3 3 3 3 3 3
4 4 4 4 4 4 4 4 5 5 5 5 5 5 5 5 5 5 5 4 4 4 4 4 4 4 4 4 4 4 4 4 4 4 4 3 3 3 3 3 3 3 2
3 3 3 3 3 3 4 4 4 4 4 4 4 4 4 4 4 4 4 4 4 4 4 4 4 4 4 3 3 3 3 3 3 3 3 3 3 3 3 2 2 2 2
2 2 2 3 3 3 3 3 3 3 4 4 4 4 4 4 4 4 4 4 4 3 3 3 3 3 3 3 3 3 3 3 3 3 3 3 3 2 2 2 2 2 1
2 2 2 2 2 2 2 3 3 3 3 3 3 3 3 3 3 3 3 3 3 3 3 3 3 3 3 3 3 3 3 3 3 2 2 2 2 2 2 2 1 1 1
1 1 1 1 1 2 2 2 2 2 2 2 3 3 3 3 3 3 3 3 3 3 2 2 2 2 2 2 2 2 2 2 2 2 2 2 1 1 1 1 1 1 1
1 1 1 1 1 1 1 1 2 1 2 2 2 2 2 2 2 2 2 2 2 2 2 2 2 2 2 2 2 2 2 1 1 1 1 1 1 1 1 1 1 0 0
-0 -0 0 0 0 1 1 1 1 1 1 1 2 2 2 2 2 2 2 2 2 2 2 2 2 2 2 1 1 1 1 1 1 1 0 0 0 0 0 0 0 0 -0
-1 -1 -0 -0 -0 -0 0 0 0 0 1 1 1 1 1 1 1 1 1 1 1 1 1 1 1 1 1 1 1 1 0 0 0 0 -0 -0 -0 -0 -0 -0 -0 -0 -0
-1 -1 -1 -1 -1 -0 -0 -0 -0 -0 -0 0 0 0 0 1 1 1 1 1 1 1 1 1 1 0 0 0 0 0 0 -0 -1 -1 -1 -1 -1 -1 -1 -1 -1 -1 -1
Wind_Speed
5 6 5 6 6 6 6 6 6 6 6 5 5 5 5 5 5 5 6 8 8 8 8 8 8 8 8 9 9 9 9 9 9 9 8 8 8 9 9 9 9 9 8
5 5 5 5 6 6 6 6 7 6 5 5 5 5 5 4 4 4 5 7 8 7 7 7 7 7 8 8 8 8 8 8 8 7 7 7 7 7 8 8 9 8 8
6 5 5 5 5 6 7 6 7 5 5 5 4 4 4 4 4 4 4 4 5 6 6 6 6 7 7 7 7 7 7 7 6 6 6 6 6 6 6 7 8 8 8
6 6 5 4 6 6 6 6 5 5 4 4 4 3 3 3 3 3 3 3 4 4 5 6 6 6 5 6 6 5 5 5 5 5 5 5 6 6 6 6 7 8 8
6 6 5 5 6 6 5 5 5 5 5 4 4 3 2 2 2 3 3 3 3 3 4 6 6 5 5 5 5 5 4 4 4 4 4 4 5 5 5 6 6 6 7
6 6 5 6 7 5 5 5 6 5 5 5 4 3 2 2 2 2 2 2 2 2 2 3 4 4 5 4 4 4 3 3 3 2 2 3 3 3 4 4 4 5 6
6 6 5 6 6 6 6 7 6 6 4 5 4 3 2 1 1 1 2 2 2 2 2 2 2 2 2 3 3 3 2 2 1 1 1 1 1 2 2 3 4 4 5
5 6 6 5 6 6 7 8 7 5 4 5 4 3 3 3 2 1 2 2 2 2 2 2 2 2 1 1 2 2 1 0 0 0 1 2 2 2 2 3 3 4 4
5 5 6 6 6 6 7 8 8 8 6 5 4 4 3 4 2 3 3 3 3 3 3 3 2 2 2 1 1 1 0 1 1 2 2 3 3 2 2 3 3 3 4
4 5 5 6 6 6 6 8 8 7 7 6 4 3 2 1 3 3 3 4 3 4 3 3 3 3 3 3 2 2 2 2 3 3 3 3 3 3 4 3 3 3 3
4 5 5 5 6 6 6 6 8 8 7 7 5 4 3 2 3 3 3 4 4 4 4 4 3 3 4 4 3 3 4 4 4 4 4 4 4 4 4 4 4 4 4
3 4 5 5 5 5 6 6 6 8 7 7 6 5 5 4 4 4 3 4 4 3 4 3 4 4 4 4 4 3 4 4 4 5 5 5 5 5 5 5 5 5 5
3 4 4 5 5 5 6 6 6 6 7 8 7 6 6 5 4 4 4 3 3 2 3 4 4 4 5 5 4 5 5 5 5 5 5 5 5 5 6 6 7 6 6
4 4 5 5 5 6 6 6 5 6 5 7 8 7 5 5 4 4 4 4 3 3 4 4 3 4 5 5 5 6 5 6 6 6 6 5 5 6 6 6 7 7 7
3 4 5 5 5 6 6 6 5 6 6 6 7 8 6 5 4 4 4 5 5 5 5 5 4 4 5 5 5 6 6 6 7 7 7 7 6 7 7 7 6 7 7
3 4 4 5 5 5 6 6 6 6 7 6 5 7 7 6 5 5 4 4 5 6 5 4 4 3 4 4 5 6 6 6 8 8 8 7 7 7 7 7 7 7 7
4 4 5 5 5 5 6 6 7 7 7 7 7 7 8 8 6 6 5 5 5 4 5 4 3 3 4 4 4 5 5 6 6 7 8 8 8 8 8 8 8 8 8
4 4 4 5 5 5 6 7 7 7 8 8 8 8 8 7 8 6 6 6 6 5 5 6 4 3 4 4 4 5 4 5 5 6 8 8 9 9 9 9 9 9 8
4 4 4 5 5 6 6 7 7 7 8 8 8 8 8 8 8 7 7 7 6 5 5 5 5 3 3 3 3 4 4 4 4 5 6 8 9 9 10 10 10 9 9
4 4 4 5 5 6 6 6 7 7 7 7 7 7 8 8 9 8 7 7 6 6 5 5 5 4 3 3 3 3 3 3 4 4 5 6 7 9 10 10 10 10 9
4 4 4 5 5 5 5 6 6 7 7 7 7 7 7 7 8 7 6 7 7 6 6 5 5 5 4 4 4 4 4 3 4 3 4 5 6 6 7 9 10 10 10
4 4 5 5 5 5 6 7 6 6 7 7 7 7 7 7 8 9 9 9 9 8 8 7 6 7 7 6 4 4 4 3 4 3 4 5 5 5 6 7 8 9 10
4 4 5 5 6 6 7 7 7 6 7 7 7 6 6 6 7 7 8 8 8 8 9 8 8 8 7 6 6 6 6 5 5 3 3 5 4 5 6 7 8 9 10
3 4 4 5 5 5 6 7 7 7 6 7 6 7 7 7 7 7 6 6 7 7 8 8 8 7 6 6 6 6 5 4 4 3 4 5 4 5 5 7 8 10 10
3 3 3 4 5 5 5 6 6 5 5 6 5 6 6 7 7 8 7 7 6 5 5 7 7 6 6 6 6 4 4 4 4 4 3 4 4 4 5 5 6 8 10
3 3 3 3 4 4 4 5 6 4 5 5 4 5 6 6 7 8 8 7 7 6 5 4 4 5 5 6 7 6 6 5 4 4 3 3 3 2 3 4 4 6 7
Wind_Direction
157 155 155 157 159 153 150 143 139 135 135 133 131 129 122 118 117 115 111 96 97 100 100 97 97 100 97 92 88 83 78 74 71 70 67 64 61 56 52 51 50 45 40
157 160 159 159 156 156 153 151 145 142 137 133 133 132 127 119 115 117 120 113 98 97 102 100 101 100 95 92 88 83 76 73 71 70 67 63 62 59 55 49 46 39 34
163 161 159 160 156 155 153 149 146 143 133 134 135 132 127 124 124 122 123 122 117 100 95 100 104 102 98 95 92 86 78 72 69 68 66 63 62 58 54 46 41 35 32
167 163 156 160 159 158 158 154 154 149 146 146 142 134 130 127 134 128 127 126 120 118 103 97 101 101 101 102 100 91 83 77 70 65 63 62 62 61 59 48 42 37 31
170 168 163 160 163 163 164 160 162 159 156 150 142 137 132 132 135 137 137 128 111 111 113 104 99 92 93 103 105 99 89 79 75 66 61 61 60 60 57 49 40 33 28
173 170 166 167 167 168 169 168 162 160 159 150 138 127 122 133 136 145 150 138 129 124 118 118 115 101 89 88 93 94 94 87 78 71 58 49 48 45 44 38 30 23 19
176 176 172 174 177 182 180 173 160 160 158 154 147 140 132 139 155 161 174 172 150 140 126 113 112 122 116 105 88 87 86 91 76 62 48 18 8 14 22 14 15 13 11
181 187 184 181 182 184 185 178 171 169 166 179 176 171 180 189 189 196 196 196 190 176 163 156 140 130 139 157 114 103 86 93 125 307 335 317 315 324 335 343 352 357 357
187 191 193 188 186 188 193 188 185 183 178 186 202 201 198 202 177 187 202 206 206 202 196 192 192 191 199 196 178 169 221 283 274 275 283 282 285 298 308 319 333 334 340
192 195 196 195 192 191 195 195 194 195 187 187 195 222 254 187 187 177 193 207 210 218 213 205 206 207 215 214 215 211 214 249 266 269 273 275 282 287 294 306 320 320 322
194 197 198 199 198 195 196 200 195 199 201 200 193 191 202 216 223 208 202 202 209 216 218 219 217 216 222 224 222 215 213 231 252 264 265 268 279 287 293 296 302 306 310
196 202 201 203 204 202 200 202 203 204 207 206 202 199 199 204 208 217 222 213 216 210 212 218 221 221 226 228 229 218 216 226 242 254 260 270 282 291 293 293 295 294 295
205 205 208 209 208 208 205 202 205 208 209 208 209 209 213 221 217 220 221 217 223 220 218 223 222 222 223 227 226 221 222 229 241 253 263 269 280 289 292 290 287 291 290
214 210 211 216 213 209 206 203 206 209 209 208 212 212 213 219 216 218 218 210 216 225 225 226 218 219 221 222 224 219 227 229 240 251 262 266 270 280 285 288 288 286 287
220 213 212 213 215 212 209 203 206 209 209 211 211 212 213 215 216 221 222 223 225 230 234 222 216 215 215 220 218 219 228 228 237 246 255 259 262 267 272 271 278 279 279
220 217 216 215 216 214 211 208 208 210 211 214 211 212 215 215 211 213 217 229 241 243 244 230 219 211 207 216 220 224 229 233 235 241 248 252 256 259 261 262 266 270 272
225 221 221 219 219 218 216 214 212 209 212 215 214 215 217 214 210 209 211 217 227 235 240 246 228 220 217 221 221 228 234 234 235 237 242 248 251 254 256 259 262 265 268
234 229 225 222 222 223 220 220 219 215 215 217 217 217 218 214 215 213 209 214 220 224 230 237 236 222 229 229 232 232 234 238 244 239 241 246 248 253 255 258 261 262 265
236 232 228 228 226 225 224 223 223 223 221 221 221 219 219 215 215 213 213 215 217 219 225 229 235 231 236 229 237 242 243 246 249 245 247 248 250 255 256 257 259 260 265
238 235 235 237 234 230 227 224 225 225 226 225 223 223 222 220 221 215 215 216 213 213 216 222 228 229 232 229 227 235 246 248 252 246 247 254 255 257 254 254 255 258 264
244 239 237 237 235 234 229 224 223 226 226 227 225 224 224 224 226 222 218 214 209 211 213 218 224 228 227 220 227 232 243 253 263 243 256 256 255 254 252 251 251 258 266
247 240 236 235 236 237 230 228 230 229 228 228 227 225 224 222 223 221 223 222 217 214 216 219 227 229 231 231 230 225 231 245 256 237 254 260 251 256 257 254 256 261 265
255 245 239 236 238 237 227 227 227 232 231 230 228 224 223 224 220 222 219 220 224 225 228 229 229 232 234 226 221 224 230 243 256 248 246 256 254 260 261 258 258 259 263
262 253 247 241 241 238 228 225 224 230 233 234 232 228 224 222 221 217 216 219 226 228 227 229 232 236 236 229 223 230 233 247 264 249 235 249 256 265 269 261 255 256 264
272 266 259 249 245 243 230 225 224 230 230 235 237 234 228 227 220 211 214 217 223 231 227 224 229 229 229 225 218 213 215 226 250 247 233 244 257 275 273 262 254 257 263
274 275 272 261 249 247 238 232 225 226 226 231 234 232 229 231 223 214 217 216 221 226 217 213 219 225 227 219 213 220 219 224 240 240 217 227 245 262 267 256 260 264 263
Height
1547 1549 1551 1552 1554 1555 1557 1558 1560 1561 1562 1564 1565 1566 1567 1568 1569 1569 1569 1570 1570 1570 1570 1570 1570 1570 1570 1569 1569 1568 1568 1568 1567 1567 1566 1566 1566 1565 1564 1564 1563 1563 1562
1546 1547 1549 1551 1552 1554 1555 1557 1558 1560 1561 1563 1564 1565 1566 1567 1568 1569 1569 1569 1570 1570 1570 1570 1570 1570 1570 1569 1569 1569 1568 1568 1567 1567 1566 1566 1565 1565 1564 1564 1563 1563 1562
1544 1546 1547 1549 1551 1552 1554 1555 1557 1559 1560 1562 1563 1564 1565 1566 1567 1568 1568 1569 1569 1569 1569 1569 1570 1570 1570 1569 1569 1569 1568 1568 1567 1567 1566 1566 1565 1565 1564 1563 1563 1562 1561
1542 1544 1545 1547 1549 1550 1552 1554 1555 1557 1558 1560 1561 1563 1564 1565 1566 1567 1567 1568 1568 1569 1569 1569 1569 1569 1569 1569 1569 1568 1568 1568 1567 1567 1566 1566 1565 1564 1564 1563 1563 1562 1561
1540 1542 1543 1545 1547 1548 1550 1552 1553 1555 1557 1558 1560 1561 1562 1563 1564 1565 1566 1567 1567 1567 1568 1568 1568 1568 1569 1568 1568 1568 1567 1567 1567 1566 1566 1565 1565 1564 1563 1563 1562 1561 1560
1538 1540 1541 1543 1544 1546 1547 1549 1551 1553 1555 1556 1558 1559 1560 1561 1562 1563 1564 1565 1565 1566 1566 1566 1567 1567 1567 1567 1567 1567 1567 1566 1566 1565 1565 1565 1564 1563 1563 1562 1561 1560 1559
1536 1538 1539 1540 1542 1543 1545 1547 1549 1551 1552 1554 1556 1558 1559 1560 1560 1561 1562 1563 1563 1564 1564 1565 1565 1566 1566 1566 1566 1566 1566 1565 1565 1564 1564 1564 1563 1563 1562 1561 1560 1559 1558
1533 1535 1537 1538 1539 1541 1542 1544 1546 1548 1550 1552 1554 1556 1557 1559 1558 1559 1559 1560 1561 1562 1562 1563 1563 1564 1564 1564 1564 1564 1564 1564 1564 1563 1562 1562 1562 1561 1561 1560 1559 1558 1557
1531 1532 1534 1535 1537 1538 1540 1541 1543 1545 1547 1549 1551 1554 1555 1555 1556 1556 1557 1558 1558 1559 1560 1560 1561 1561 1562 1562 1562 1562 1562 1562 1561 1561 1561 1560 1560 1559 1559 1558 1557 1556 1555
1528 1529 1531 1533 1534 1535 1537 1538 1540 1542 1544 1545 1548 1549 1551 1552 1553 1554 1555 1555 1556 1556 1557 1558 1558 1559 1559 1559 1559 1559 1559 1559 1559 1559 1559 1558 1558 1557 1557 1556 1555 1554 1553
1524 1526 1528 1529 1531 1532 1534 1535 1537 1539 1541 1542 1544 1546 1548 1549 1550 1551 1552 1552 1553 1554 1554 1555 1555 1556 1556 1556 1557 1557 1557 1556 1556 1556 1556 1556 1555 1555 1554 1553 1552 1552 1551
1521 1523 1524 1526 1527 1529 1530 1532 1533 1535 1537 1539 1541 1542 1544 1546 1547 1548 1549 1549 1550 1551 1551 1552 1552 1553 1553 1553 1553 1553 1553 1553 1553 1553 1553 1552 1552 1552 1551 1550 1550 1549 1548
1517 1519 1520 1522 1524 1525 1527 1528 1530 1532 1533 1535 1537 1538 1540 1542 1544 1545 1546 1546 1547 1547 1548 1548 1549 1549 1549 1550 1550 1550 1550 1550 1550 1550 1549 1549 1549 1548 1548 1547 1546 1545 1544
1513 1515 1517 1518 1520 1521 1523 1525 1526 1527 1529 1531 1532 1534 1536 1537 1539 1541 1542 1544 1544 1544 1544 1544 1545 1545 1546 1546 1546 1547 1547 1546 1546 1546 1546 1545 1545 1544 1544 1543 1543 1542 1541
1509 1511 1513 1514 1516 1517 1519 1521 1522 1524 1525 1527 1528 1530 1531 1533 1534 1536 1538 1540 1542 1541 1540 1541 1541 1541 1542 1542 1542 1543 1543 1542 1542 1542 1542 1541 1541 1540 1540 1539 1538 1538 1537
1506 1507 1509 1510 1511 1513 1515 1517 1518 1520 1521 1522 1524 1525 1527 1528 1530 1531 1533 1535 1536 1537 1536 1536 1537 1537 1538 1538 1538 1538 1538 1538 1538 1538 1538 1537 1537 1536 1536 1535 1534 1533 1532
1502 1503 1505 1506 1507 1509 1510 1512 1513 1515 1517 1518 1519 1521 1522 1524 1525 1526 1528 1529 1531 1532 1532 1532 1533 1533 1533 1534 1534 1534 1534 1534 1534 1533 1533 1533 1532 1532 1531 1530 1529 1528 1527
1498 1500 1501 1502 1503 1505 1506 1507 1509 1510 1512 1513 1515 1516 1517 1519 1520 1522 1523 1524 1526 1527 1528 1528 1528 1528 1529 1529 1529 1529 1529 1529 1529 1529 1529 1528 1528 1527 1526 1525 1525 1524 1523
1495 1496 1497 1498 1499 1500 1502 1503 1504 1505 1507 1508 1509 1511 1512 1514 1515 1516 1518 1519 1520 1522 1523 1523 1523 1524 1524 1524 1525 1525 1525 1524 1524 1524 1524 1523 1523 1522 1521 1520 1520 1519 1518
1491 1492 1493 1494 1495 1496 1497 1498 1499 1500 1502 1503 1504 1506 1507 1509 1510 1511 1513 1514 1515 1516 1518 1518 1519 1519 1519 1519 1520 1520 1520 1520 1520 1519 1519 1519 1518 1517 1516 1515 1515 1514 1513
1487 1488 1489 1490 1490 1491 1492 1493 1494 1495 1497 1498 1499 1501 1502 1503 1505 1506 1508 1509 1510 1511 1512 1513 1513 1514 1514 1514 1515 1515 1515 1515 1514 1514 1514 1513 1513 1512 1511 1510 1510 1509 1508
1483 1484 1485 1485 1486 1486 1487 1488 1490 1491 1492 1493 1494 1495 1497 1498 1500 1501 1502 1504 1505 1506 1506 1507 1508 1508 1508 1509 1510 1510 1510 1510 1509 1510 1509 1509 1509 1507 1507 1506 1505 1504 1503
1479 1479 1480 1481 1481 1482 1483 1484 1485 1486 1487 1488 1489 1490 1491 1493 1494 1496 1496 1498 1499 1500 1501 1503 1502 1503 1504 1504 1505 1505 1506 1506 1505 1505 1505 1504 1504 1503 1502 1501 1500 1499 1498
1475 1475 1476 1476 1477 1477 1478 1479 1480 1481 1482 1483 1484 1485 1486 1487 1489 1490 1491 1492 1493 1494 1495 1496 1497 1498 1499 1500 1500 1501 1501 1501 1501 1501 1500 1499 1499 1498 1497 1496 1495 1494 1493
1471 1471 1471 1471 1472 1473 1474 1475 1476 1476 1477 1478 1479 1480 1481 1482 1484 1485 1486 1487 1488 1489 1490 1491 1492 1493 1494 1495 1495 1496 1496 1496 1495 1495 1496 1495 1494 1493 1492 1491 1490 1489 1488
1467 1466 1467 1467 1468 1468 1469 1470 1471 1472 1472 1473 1474 1475 1476 1477 1479 1480 1481 1482 1482 1483 1485 1486 1487 1487 1488 1489 1490 1491 1491 1491 1490 1490 1490 1490 1489 1489 1487 1485 1485 1484 1482